| time (UTC) | temp C | wind direction | speed KPH | gust KPH | rain 1hr cm | rain 24hr cm | rain mn cm | humidity % | barometer mb |
| 20260504215022 | 23 | 256 | 4.8 | 14.5 | 0.00 | 0.00 | 0.00 | 53 | 1007.5 |
| 20260504214034 | 23 | 191 | 4.8 | 12.9 | 0.00 | 0.00 | 0.00 | 51 | 1007.6 |
| 20260504213046 | 23 | 197 | 4.8 | 11.3 | 0.00 | 0.00 | 0.00 | 49 | 1007.7 |
| 20260504212056 | 23 | 269 | 4.8 | 14.5 | 0.00 | 0.00 | 0.00 | 52 | 1007.7 |
| 20260504211107 | 22 | 221 | 6.4 | 14.5 | 0.00 | 0.00 | 0.00 | 50 | 1007.6 |
| 20260504210036 | 22 | 165 | 6.4 | 12.9 | 0.00 | 0.00 | 0.00 | 50 | 1007.7 |
| 20260504202749 | 22 | 198 | 4.8 | 12.9 | 0.00 | 0.00 | 0.00 | 52 | 1007.9 |
| 20260504201736 | 22 | 171 | 6.4 | 14.5 | 0.00 | 0.00 | 0.00 | 56 | 1008.1 |
| 20260504195554 | 21 | 140 | 6.4 | 12.9 | 0.00 | 0.00 | 0.00 | 52 | 1008.1 |
| 20260504194539 | 21 | 192 | 4.8 | 11.3 | 0.00 | 0.00 | 0.00 | 53 | 1007.9 |
| 20260504193558 | 21 | 207 | 6.4 | 14.5 | 0.00 | 0.00 | 0.00 | 53 | 1007.9 |
| 20260504192524 | 21 | 211 | 6.4 | 14.5 | 0.00 | 0.00 | 0.00 | 55 | 1008.0 |
| 20260504184114 | 20 | 207 | 3.2 | 11.3 | 0.00 | 0.00 | 0.00 | 57 | 1008.2 |
| 20260504183105 | 21 | 171 | 4.8 | 11.3 | 0.00 | 0.00 | 0.00 | 59 | 1008.2 |
| 20260504182116 | 21 | 199 | 3.2 | 9.7 | 0.00 | 0.00 | 0.00 | 59 | 1008.1 |
| 20260504181114 | 20 | 178 | 4.8 | 9.7 | 0.00 | 0.00 | 0.00 | 57 | 1008.1 |
| 20260504180133 | 20 | 128 | 3.2 | 9.7 | 0.00 | 0.00 | 0.00 | 56 | 1008.3 |
| 20260504175105 | 20 | 200 | 3.2 | 9.7 | 0.00 | 0.00 | 0.00 | 55 | 1008.3 |
| 20260504173037 | 20 | 269 | 1.6 | 6.4 | 0.00 | 0.00 | 0.00 | 62 | 1008.2 |
| 20260504172053 | 20 | 277 | 0.0 | 1.6 | 0.00 | 0.00 | 0.00 | 64 | 1008.2 |
| 20260504171057 | 19 | 277 | 1.6 | 3.2 | 0.00 | 0.00 | 0.00 | 64 | 1008.2 |
| 20260504150823 | 14 | 63 | 0.0 | 1.6 | 0.00 | 0.00 | 0.00 | 79 | 1008.1 |
| 20260504140812 | 12 | 49 | 0.0 | 0.0 | 0.00 | 0.00 | 0.00 | 81 | 1007.5 |
| 20260504080210 | 14 | 113 | 0.0 | 0.0 | 0.00 | 0.00 | 0.00 | 63 | 1006.9 |
| 20260504070248 | 15 | 113 | 0.0 | 0.0 | 0.00 | 0.00 | 0.00 | 62 | 1006.8 |
| 20260504045849 | 18 | 113 | 0.0 | 1.6 | 0.00 | 0.00 | 0.00 | 53 | 1007.1 |
| 20260504043651 | 18 | 113 | 0.0 | 1.6 | 0.00 | 0.00 | 0.00 | 50 | 1007.1 |
| 20260504042617 | 17 | 113 | 0.0 | 1.6 | 0.00 | 0.00 | 0.00 | 54 | 1007.0 |
| 20260504035359 | 18 | 75 | 0.0 | 0.0 | 0.00 | 0.00 | 0.00 | 48 | 1007.0 |
| 20260504034343 | 18 | 75 | 0.0 | 3.2 | 0.00 | 0.00 | 0.00 | 52 | 1007.0 |
| 20260504033316 | 18 | 76 | 0.0 | 3.2 | 0.00 | 0.00 | 0.00 | 51 | 1007.0 |
| 20260504032300 | 19 | 116 | 0.0 | 0.0 | 0.00 | 0.00 | 0.00 | 50 | 1006.9 |
| 20260504031259 | 20 | 119 | 0.0 | 0.0 | 0.00 | 0.00 | 0.00 | 52 | 1006.9 |
| 20260504030323 | 20 | 175 | 0.0 | 0.0 | 0.00 | 0.00 | 0.00 | 54 | 1007.0 |
| 20260504025341 | 19 | 175 | 0.0 | 0.0 | 0.00 | 0.00 | 0.00 | 55 | 1007.0 |
| 20260504024402 | 20 | 168 | 0.0 | 0.0 | 0.00 | 0.00 | 0.00 | 53 | 1007.0 |
| 20260504023351 | 21 | 168 | 0.0 | 0.0 | 0.00 | 0.00 | 0.00 | 54 | 1007.0 |
| 20260504022336 | 20 | 167 | 0.0 | 0.0 | 0.00 | 0.00 | 0.00 | 51 | 1007.2 |
| 20260504021310 | 20 | 258 | 0.0 | 3.2 | 0.00 | 0.00 | 0.00 | 55 | 1007.3 |
| 20260504020325 | 21 | 49 | 0.0 | 1.6 | 0.00 | 0.00 | 0.00 | 53 | 1007.3 |
| 20260504014211 | 23 | 281 | 0.0 | 0.0 | 0.00 | 0.00 | 0.00 | 51 | 1007.4 |
| 20260504011955 | 22 | 327 | 0.0 | 0.0 | 0.00 | 0.00 | 0.00 | 51 | 1007.6 |
| 20260504010952 | 21 | 327 | 0.0 | 0.0 | 0.00 | 0.00 | 0.00 | 54 | 1007.7 |
| 20260504005937 | 22 | 281 | 0.0 | 1.6 | 0.00 | 0.00 | 0.00 | 54 | 1007.8 |
| 20260504004906 | 23 | 281 | 0.0 | 1.6 | 0.00 | 0.00 | 0.00 | 43 | 1007.8 |
| 20260504002749 | 23 | 348 | 3.2 | 6.4 | 0.00 | 0.00 | 0.00 | 38 | 1008.1 |
| 20260504001743 | 23 | 43 | 1.6 | 4.8 | 0.00 | 0.00 | 0.00 | 38 | 1008.1 |
| 20260503235626 | 22 | 285 | 1.6 | 8.0 | 0.00 | 0.00 | 0.00 | 48 | 1008.3 |
| 20260503234614 | 23 | 348 | 4.8 | 8.0 | 0.00 | 0.00 | 0.00 | 40 | 1008.5 |
| 20260503233622 | 23 | 32 | 1.6 | 9.7 | 0.00 | 0.00 | 0.00 | 41 | 1008.6 |
| 20260503232558 | 22 | 296 | 3.2 | 14.5 | 0.00 | 0.00 | 0.00 | 51 | 1008.7 |
| 20260503231612 | 23 | 44 | 4.8 | 14.5 | 0.00 | 0.00 | 0.00 | 39 | 1008.8 |
| 20260503230551 | 24 | 355 | 3.2 | 9.7 | 0.00 | 0.00 | 0.00 | 42 | 1008.9 |
| 20260503223346 | 24 | 22 | 3.2 | 8.0 | 0.00 | 0.00 | 0.00 | 40 | 1009.4 |
| 20260503220108 | 23 | 28 | 3.2 | 6.4 | 0.00 | 0.00 | 0.00 | 44 | 1009.7 |
| 20260503215112 | 23 | 26 | 3.2 | 6.4 | 0.00 | 0.00 | 0.00 | 45 | 1009.8 |